| time (UTC) | temp F | wind direction | speed MPH | gust MPH | rain 1hr in | rain 24hr in | rain mn in | humidity % | barometer mb |
| 20260831230736 | 83 | 316 | 0.0 | 0.0 | 0.00 | 0.03 | 0.03 | 98 | 1016.7 |
| 20260831230231 | 83 | 300 | 0.0 | 0.0 | 0.00 | 0.03 | 0.03 | 98 | 1016.6 |
| 20260831225730 | 83 | 290 | 0.0 | 0.0 | 0.00 | 0.03 | 0.03 | 98 | 1016.8 |
| 20260831225226 | 83 | 290 | 0.0 | 0.0 | 0.00 | 0.03 | 0.03 | 98 | 1016.8 |
| 20260831224720 | 83 | 297 | 0.0 | 0.0 | 0.00 | 0.03 | 0.03 | 97 | 1016.7 |
| 20260831224216 | 83 | 332 | 0.0 | 0.0 | 0.00 | 0.03 | 0.03 | 98 | 1016.8 |
| 20260831223711 | 83 | 327 | 0.0 | 0.0 | 0.00 | 0.03 | 0.03 | 98 | 1016.7 |
| 20260831223208 | 83 | 355 | 0.0 | 1.0 | 0.00 | 0.03 | 0.03 | 98 | 1016.6 |
| 20260831222703 | 83 | 322 | 0.0 | 0.0 | 0.00 | 0.03 | 0.03 | 98 | 1016.4 |
| 20260831222158 | 83 | 347 | 0.0 | 0.0 | 0.00 | 0.03 | 0.03 | 98 | 1016.6 |
| 20260831221648 | 83 | 327 | 0.0 | 0.0 | 0.00 | 0.03 | 0.03 | 98 | 1016.4 |
| 20260831221143 | 83 | 331 | 0.0 | 0.0 | 0.00 | 0.03 | 0.03 | 98 | 1016.6 |
| 20260831220638 | 83 | 331 | 1.0 | 1.0 | 0.00 | 0.03 | 0.03 | 98 | 1016.6 |
| 20260831220133 | 83 | 312 | 0.0 | 0.0 | 0.00 | 0.03 | 0.03 | 98 | 1016.7 |
| 20260831215629 | 82 | 344 | 0.0 | 0.0 | 0.00 | 0.03 | 0.03 | 98 | 1016.9 |
| 20260831215124 | 82 | 323 | 0.0 | 0.0 | 0.00 | 0.03 | 0.03 | 98 | 1016.8 |
| 20260831214622 | 82 | 322 | 0.0 | 0.0 | 0.00 | 0.03 | 0.03 | 97 | 1016.9 |
| 20260831214118 | 82 | 351 | 1.0 | 2.0 | 0.00 | 0.03 | 0.03 | 97 | 1016.6 |
| 20260831213614 | 82 | 315 | 0.0 | 0.0 | 0.00 | 0.03 | 0.03 | 98 | 1016.7 |
| 20260831213109 | 82 | 313 | 0.0 | 0.0 | 0.00 | 0.03 | 0.03 | 98 | 1016.9 |
| 20260831212605 | 82 | 331 | 0.0 | 0.0 | 0.00 | 0.03 | 0.03 | 98 | 1016.7 |
| 20260831212101 | 82 | 2 | 2.0 | 2.0 | 0.00 | 0.03 | 0.03 | 98 | 1016.6 |
| 20260831211600 | 82 | 323 | 0.0 | 0.0 | 0.00 | 0.03 | 0.03 | 99 | 1017.0 |
| 20260831211100 | 82 | 331 | 2.0 | 2.0 | 0.00 | 0.03 | 0.03 | 99 | 1016.8 |
| 20260831210555 | 82 | 329 | 2.0 | 2.0 | 0.00 | 0.03 | 0.03 | 99 | 1017.0 |
| 20260831210051 | 81 | 327 | 2.0 | 2.0 | 0.00 | 0.03 | 0.03 | 99 | 1016.9 |
| 20260831205545 | 81 | 29 | 1.0 | 1.0 | 0.00 | 0.03 | 0.03 | 99 | 1017.0 |
| 20260831205041 | 81 | 328 | 0.0 | 1.0 | 0.00 | 0.03 | 0.03 | 99 | 1017.1 |
| 20260831204536 | 81 | 351 | 2.0 | 3.0 | 0.00 | 0.03 | 0.03 | 99 | 1016.8 |
| 20260831204034 | 81 | 353 | 3.0 | 5.0 | 0.00 | 0.03 | 0.03 | 99 | 1017.2 |
| 20260831203534 | 82 | 327 | 2.0 | 3.0 | 0.00 | 0.03 | 0.03 | 99 | 1017.2 |
| 20260831203033 | 82 | 341 | 1.0 | 2.0 | 0.00 | 0.03 | 0.03 | 99 | 1017.2 |
| 20260831202527 | 83 | 310 | 0.0 | 0.0 | 0.00 | 0.03 | 0.03 | 99 | 1017.4 |
| 20260831202027 | 83 | 308 | 0.0 | 1.0 | 0.00 | 0.03 | 0.03 | 99 | 1017.3 |
| 20260831201525 | 83 | 343 | 0.0 | 0.0 | 0.00 | 0.03 | 0.03 | 99 | 1017.3 |
| 20260831201021 | 83 | 308 | 0.0 | 0.0 | 0.07 | 0.03 | 0.03 | 99 | 1017.3 |
| 20260831200517 | 83 | 312 | 0.0 | 0.0 | 0.07 | 0.03 | 0.03 | 99 | 1017.1 |
| 20260831200012 | 82 | 312 | 0.0 | 0.0 | 0.00 | 0.02 | 0.02 | 99 | 1017.3 |
| 20260831195508 | 82 | 329 | 0.0 | 0.0 | 0.05 | 0.02 | 0.02 | 99 | 1017.4 |
| 20260831195007 | 82 | 295 | 0.0 | 1.0 | 0.05 | 0.02 | 0.02 | 99 | 1017.4 |
| 20260831194503 | 82 | 327 | 1.0 | 1.0 | 0.00 | 0.01 | 0.01 | 99 | 1017.4 |
| 20260831194002 | 82 | 323 | 0.0 | 0.0 | 0.00 | 0.01 | 0.01 | 99 | 1017.6 |
| 20260831193458 | 82 | 326 | 0.0 | 0.0 | 0.07 | 0.01 | 0.01 | 99 | 1017.6 |
| 20260831192953 | 82 | 328 | 0.0 | 0.0 | 0.07 | 0.01 | 0.01 | 98 | 1017.7 |
| 20260831192448 | 82 | 285 | 0.0 | 0.0 | 0.00 | 0.00 | 0.00 | 98 | 1017.7 |
| 20260831191942 | 82 | 286 | 0.0 | 0.0 | 0.00 | 0.00 | 0.00 | 97 | 1017.5 |
| 20260831191439 | 81 | 287 | 0.0 | 0.0 | 0.00 | 0.00 | 0.00 | 97 | 1017.7 |
| 20260831190935 | 82 | 285 | 0.0 | 0.0 | 0.00 | 0.00 | 0.00 | 97 | 1017.7 |
| 20260831190429 | 82 | 284 | 0.0 | 0.0 | 0.00 | 0.00 | 0.00 | 96 | 1017.8 |
| 20260831185928 | 82 | 281 | 0.0 | 0.0 | 0.00 | 0.00 | 0.00 | 95 | 1017.8 |
| 20260831185424 | 82 | 285 | 0.0 | 0.0 | 0.00 | 0.00 | 0.00 | 94 | 1017.6 |
| 20260831184919 | 83 | 303 | 0.0 | 0.0 | 0.00 | 0.00 | 0.00 | 91 | 1017.5 |
| 20260831184418 | 83 | 311 | 0.0 | 0.0 | 0.00 | 0.00 | 0.00 | 89 | 1017.5 |
| 20260831183914 | 83 | 312 | 0.0 | 0.0 | 0.00 | 0.00 | 0.00 | 90 | 1017.2 |
| 20260831183414 | 82 | 312 | 0.0 | 0.0 | 0.00 | 0.00 | 0.00 | 90 | 1017.1 |
| 20260831182908 | 82 | 284 | 0.0 | 0.0 | 0.00 | 0.00 | 0.00 | 91 | 1017.2 |
| 20260831182403 | 82 | 289 | 0.0 | 0.0 | 0.00 | 0.00 | 0.00 | 92 | 1017.4 |
| 20260831181858 | 82 | 299 | 0.0 | 0.0 | 0.00 | 0.00 | 0.00 | 92 | 1017.5 |
| 20260831181353 | 83 | 285 | 0.0 | 0.0 | 0.00 | 0.00 | 0.00 | 93 | 1017.6 |
| 20260831180848 | 83 | 238 | 0.0 | 1.0 | 0.00 | 0.00 | 0.00 | 92 | 1017.7 |
| 20260831180342 | 83 | 286 | 0.0 | 0.0 | 0.00 | 0.00 | 0.00 | 93 | 1018.1 |
| 20260831175841 | 83 | 280 | 0.0 | 0.0 | 0.00 | 0.00 | 0.00 | 93 | 1018.0 |
| 20260831175338 | 83 | 286 | 1.0 | 1.0 | 0.00 | 0.00 | 0.00 | 93 | 1017.8 |
| 20260831174834 | 83 | 292 | 0.0 | 0.0 | 0.00 | 0.00 | 0.00 | 93 | 1017.8 |
| 20260831174329 | 83 | 303 | 0.0 | 0.0 | 0.00 | 0.00 | 0.00 | 93 | 1017.9 |
| 20260831173828 | 83 | 300 | 0.0 | 0.0 | 0.00 | 0.00 | 0.00 | 93 | 1018.1 |
| 20260831173322 | 83 | 300 | 0.0 | 0.0 | 0.00 | 0.00 | 0.00 | 93 | 1018.0 |
| 20260831172818 | 82 | 301 | 0.0 | 0.0 | 0.00 | 0.00 | 0.00 | 93 | 1018.2 |
| 20260831172313 | 82 | 279 | 0.0 | 0.0 | 0.00 | 0.00 | 0.00 | 93 | 1018.0 |
| 20260831171813 | 82 | 296 | 0.0 | 0.0 | 0.00 | 0.00 | 0.00 | 93 | 1018.1 |
| 20260831171310 | 82 | 303 | 1.0 | 1.0 | 0.00 | 0.00 | 0.00 | 93 | 1018.0 |
| 20260831170806 | 82 | 239 | 1.0 | 1.0 | 0.00 | 0.00 | 0.00 | 91 | 1018.1 |
| 20260831170302 | 83 | 130 | 4.0 | 6.0 | 0.00 | 0.00 | 0.00 | 92 | 1018.2 |
| 20260831165758 | 84 | 211 | 1.0 | 1.0 | 0.00 | 0.00 | 0.00 | 93 | 1018.0 |
| 20260831165255 | 85 | 260 | 0.0 | 0.0 | 0.00 | 0.00 | 0.00 | 93 | 1017.8 |
| 20260831164750 | 86 | 254 | 1.0 | 2.0 | 0.00 | 0.00 | 0.00 | 91 | 1018.0 |
| 20260831164246 | 86 | 296 | 0.0 | 0.0 | 0.00 | 0.00 | 0.00 | 90 | 1017.9 |
| 20260831163742 | 87 | 294 | 0.0 | 1.0 | 0.00 | 0.00 | 0.00 | 90 | 1018.1 |
| 20260831163237 | 87 | 288 | 0.0 | 0.0 | 0.00 | 0.00 | 0.00 | 90 | 1017.7 |
| 20260831162736 | 87 | 323 | 0.0 | 0.0 | 0.00 | 0.00 | 0.00 | 88 | 1018.0 |
| 20260831162235 | 88 | 296 | 1.0 | 1.0 | 0.00 | 0.00 | 0.00 | 86 | 1018.0 |
| 20260831161730 | 89 | 326 | 0.0 | 0.0 | 0.00 | 0.00 | 0.00 | 85 | 1017.9 |
| 20260831161227 | 90 | 313 | 0.0 | 0.0 | 0.00 | 0.00 | 0.00 | 83 | 1018.2 |
| 20260831160726 | 90 | 332 | 0.0 | 1.0 | 0.00 | 0.00 | 0.00 | 82 | 1018.3 |
| 20260831160221 | 90 | 336 | 1.0 | 2.0 | 0.00 | 0.00 | 0.00 | 81 | 1018.2 |
| 20260831155721 | 90 | 335 | 0.0 | 0.0 | 0.00 | 0.00 | 0.00 | 80 | 1018.5 |
| 20260831155217 | 91 | 335 | 0.0 | 1.0 | 0.00 | 0.00 | 0.00 | 81 | 1018.4 |
| 20260831154712 | 92 | 5 | 2.0 | 2.0 | 0.00 | 0.00 | 0.00 | 79 | 1018.4 |
| 20260831154209 | 92 | 287 | 0.0 | 0.0 | 0.00 | 0.00 | 0.00 | 78 | 1018.5 |
| 20260831153707 | 92 | 12 | 0.0 | 0.0 | 0.00 | 0.00 | 0.00 | 79 | 1018.3 |
| 20260831153203 | 93 | 5 | 0.0 | 0.0 | 0.00 | 0.00 | 0.00 | 78 | 1018.4 |
| 20260831152659 | 93 | 99 | 0.0 | 0.0 | 0.00 | 0.00 | 0.00 | 76 | 1018.4 |
| 20260831152154 | 95 | 340 | 1.0 | 1.0 | 0.00 | 0.00 | 0.00 | 75 | 1018.4 |
| 20260831151648 | 95 | 151 | 4.0 | 5.0 | 0.00 | 0.00 | 0.00 | 70 | 1018.3 |
| 20260831151142 | 93 | 29 | 2.0 | 2.0 | 0.00 | 0.00 | 0.00 | 74 | 1018.2 |
| 20260831150638 | 91 | 327 | 1.0 | 2.0 | 0.00 | 0.00 | 0.00 | 77 | 1018.3 |
| 20260831150133 | 93 | 97 | 3.0 | 3.0 | 0.00 | 0.00 | 0.00 | 79 | 1018.4 |
| 20260831145627 | 92 | 178 | 1.0 | 1.0 | 0.00 | 0.00 | 0.00 | 78 | 1018.4 |
| 20260831145124 | 92 | 129 | 4.0 | 5.0 | 0.00 | 0.00 | 0.00 | 81 | 1018.4 |
| 20260831144619 | 91 | 326 | 0.0 | 0.0 | 0.00 | 0.00 | 0.00 | 81 | 1018.3 |
| 20260831144115 | 91 | 110 | 3.0 | 5.0 | 0.00 | 0.00 | 0.00 | 81 | 1018.6 |
| 20260831143614 | 91 | 336 | 0.0 | 1.0 | 0.00 | 0.00 | 0.00 | 82 | 1018.2 |
| 20260831143110 | 93 | 340 | 0.0 | 1.0 | 0.00 | 0.00 | 0.00 | 81 | 1018.3 |
| 20260831142606 | 92 | 137 | 2.0 | 3.0 | 0.00 | 0.00 | 0.00 | 80 | 1018.4 |
| 20260831142101 | 91 | 116 | 2.0 | 3.0 | 0.00 | 0.00 | 0.00 | 83 | 1018.5 |
| 20260831141600 | 91 | 53 | 2.0 | 2.0 | 0.00 | 0.00 | 0.00 | 81 | 1018.2 |
| 20260831141055 | 90 | 4 | 1.0 | 2.0 | 0.00 | 0.00 | 0.00 | 83 | 1018.4 |
| 20260831140549 | 91 | 179 | 2.0 | 2.0 | 0.00 | 0.00 | 0.00 | 82 | 1018.5 |
| 20260831140043 | 90 | 340 | 0.0 | 0.0 | 0.00 | 0.00 | 0.00 | 84 | 1018.3 |
| 20260831135541 | 88 | 340 | 0.0 | 0.0 | 0.00 | 0.00 | 0.00 | 87 | 1018.4 |
| 20260831135037 | 89 | 12 | 0.0 | 1.0 | 0.00 | 0.00 | 0.00 | 85 | 1018.1 |
| 20260831134533 | 89 | 322 | 1.0 | 2.0 | 0.00 | 0.00 | 0.00 | 84 | 1018.4 |
| 20260831134032 | 89 | 339 | 0.0 | 0.0 | 0.00 | 0.00 | 0.00 | 84 | 1018.3 |
| 20260831133521 | 88 | 115 | 3.0 | 5.0 | 0.00 | 0.00 | 0.00 | 84 | 1017.9 |
| 20260831133016 | 88 | 341 | 1.0 | 2.0 | 0.00 | 0.00 | 0.00 | 85 | 1018.1 |
| 20260831132512 | 87 | 347 | 0.0 | 0.0 | 0.00 | 0.00 | 0.00 | 86 | 1018.0 |
| 20260831132011 | 85 | 339 | 0.0 | 1.0 | 0.00 | 0.00 | 0.00 | 91 | 1017.9 |
| 20260831131505 | 85 | 41 | 1.0 | 1.0 | 0.00 | 0.00 | 0.00 | 93 | 1017.9 |
| 20260831131002 | 84 | 344 | 0.0 | 0.0 | 0.00 | 0.00 | 0.00 | 93 | 1017.8 |
| 20260831130457 | 84 | 45 | 0.0 | 0.0 | 0.00 | 0.00 | 0.00 | 94 | 1018.0 |
| 20260831125956 | 84 | 348 | 0.0 | 0.0 | 0.00 | 0.00 | 0.00 | 96 | 1017.8 |
| 20260831125451 | 83 | 329 | 1.0 | 2.0 | 0.00 | 0.00 | 0.00 | 97 | 1017.9 |
| 20260831124947 | 82 | 330 | 0.0 | 0.0 | 0.00 | 0.00 | 0.00 | 99 | 1017.9 |
| 20260831124443 | 82 | 326 | 0.0 | 0.0 | 0.00 | 0.00 | 0.00 | 99 | 1017.8 |
| 20260831123938 | 81 | 331 | 0.0 | 0.0 | 0.00 | 0.00 | 0.00 | 99 | 1017.7 |
| 20260831123437 | 81 | 336 | 0.0 | 1.0 | 0.00 | 0.00 | 0.00 | 99 | 1017.8 |
| 20260831122932 | 81 | 331 | 0.0 | 0.0 | 0.00 | 0.00 | 0.00 | 99 | 1017.7 |
| 20260831122427 | 80 | 333 | 0.0 | 0.0 | 0.00 | 0.00 | 0.00 | 99 | 1017.6 |
| 20260831121922 | 80 | 313 | 0.0 | 0.0 | 0.00 | 0.00 | 0.00 | 99 | 1017.6 |
| 20260831121417 | 80 | 331 | 0.0 | 0.0 | 0.00 | 0.00 | 0.00 | 99 | 1017.6 |
| 20260831120913 | 80 | 340 | 0.0 | 0.0 | 0.00 | 0.00 | 0.00 | 99 | 1017.6 |
| 20260831120407 | 80 | 330 | 0.0 | 0.0 | 0.00 | 0.00 | 0.00 | 99 | 1017.4 |
| 20260831115902 | 79 | 330 | 0.0 | 0.0 | 0.00 | 0.00 | 0.00 | 99 | 1017.3 |
| 20260831115359 | 79 | 330 | 0.0 | 0.0 | 0.00 | 0.00 | 0.00 | 99 | 1017.1 |
| 20260831114857 | 79 | 330 | 0.0 | 0.0 | 0.00 | 0.00 | 0.00 | 99 | 1017.0 |
| 20260831114351 | 79 | 332 | 0.0 | 0.0 | 0.00 | 0.00 | 0.00 | 99 | 1017.1 |
| 20260831113847 | 79 | 332 | 0.0 | 0.0 | 0.00 | 0.00 | 0.00 | 99 | 1017.0 |
| 20260831113347 | 79 | 332 | 0.0 | 0.0 | 0.00 | 0.00 | 0.00 | 99 | 1016.8 |
| 20260831112841 | 79 | 332 | 0.0 | 0.0 | 0.00 | 0.00 | 0.00 | 99 | 1017.0 |
| 20260831112336 | 78 | 332 | 0.0 | 0.0 | 0.00 | 0.00 | 0.00 | 99 | 1017.0 |
| 20260831111832 | 78 | 331 | 0.0 | 0.0 | 0.00 | 0.00 | 0.00 | 99 | 1017.0 |
| 20260831111328 | 78 | 331 | 0.0 | 0.0 | 0.00 | 0.00 | 0.00 | 99 | 1016.7 |
| 20260831110824 | 78 | 331 | 0.0 | 0.0 | 0.00 | 0.00 | 0.00 | 99 | 1016.6 |
| 20260831110324 | 78 | 331 | 0.0 | 0.0 | 0.00 | 0.00 | 0.00 | 99 | 1016.7 |
| 20260831105822 | 78 | 331 | 0.0 | 0.0 | 0.00 | 0.00 | 0.00 | 99 | 1016.6 |
| 20260831105319 | 78 | 331 | 0.0 | 0.0 | 0.00 | 0.00 | 0.00 | 99 | 1016.4 |
| 20260831104819 | 78 | 331 | 0.0 | 0.0 | 0.00 | 0.00 | 0.00 | 99 | 1016.5 |
| 20260831104315 | 78 | 330 | 0.0 | 0.0 | 0.00 | 0.00 | 0.00 | 99 | 1016.5 |
| 20260831103814 | 78 | 330 | 0.0 | 0.0 | 0.00 | 0.00 | 0.00 | 99 | 1016.4 |
| 20260831103310 | 78 | 331 | 0.0 | 0.0 | 0.00 | 0.00 | 0.00 | 99 | 1016.4 |
| 20260831102805 | 78 | 331 | 0.0 | 0.0 | 0.00 | 0.00 | 0.00 | 99 | 1016.3 |
| 20260831102300 | 78 | 331 | 0.0 | 0.0 | 0.00 | 0.00 | 0.00 | 99 | 1016.2 |
| 20260831101755 | 78 | 331 | 0.0 | 0.0 | 0.00 | 0.00 | 0.00 | 99 | 1016.3 |
| 20260831101251 | 78 | 331 | 0.0 | 0.0 | 0.00 | 0.00 | 0.00 | 99 | 1016.3 |
| 20260831100746 | 78 | 342 | 0.0 | 0.0 | 0.00 | 0.00 | 0.00 | 99 | 1016.3 |
| 20260831100242 | 78 | 312 | 0.0 | 0.0 | 0.00 | 0.00 | 0.00 | 99 | 1016.0 |
| 20260831095741 | 78 | 312 | 0.0 | 0.0 | 0.00 | 0.00 | 0.00 | 99 | 1016.1 |
| 20260831095236 | 78 | 312 | 0.0 | 0.0 | 0.00 | 0.00 | 0.00 | 99 | 1016.1 |
| 20260831094731 | 78 | 312 | 0.0 | 0.0 | 0.00 | 0.00 | 0.00 | 99 | 1015.9 |
| 20260831094227 | 77 | 310 | 0.0 | 0.0 | 0.00 | 0.00 | 0.00 | 99 | 1016.0 |
| 20260831093723 | 78 | 309 | 0.0 | 0.0 | 0.00 | 0.00 | 0.00 | 99 | 1016.2 |
| 20260831093218 | 78 | 320 | 0.0 | 0.0 | 0.00 | 0.00 | 0.00 | 99 | 1016.2 |
| 20260831092714 | 78 | 320 | 0.0 | 0.0 | 0.00 | 0.00 | 0.00 | 99 | 1016.4 |
| 20260831092210 | 78 | 320 | 0.0 | 0.0 | 0.00 | 0.00 | 0.00 | 99 | 1016.4 |
| 20260831091709 | 78 | 320 | 0.0 | 0.0 | 0.00 | 0.00 | 0.00 | 99 | 1016.4 |
| 20260831091206 | 78 | 321 | 0.0 | 0.0 | 0.00 | 0.00 | 0.00 | 99 | 1016.5 |
| 20260831090705 | 78 | 321 | 0.0 | 0.0 | 0.00 | 0.00 | 0.00 | 99 | 1016.2 |
| 20260831090202 | 78 | 322 | 0.0 | 0.0 | 0.00 | 0.00 | 0.00 | 99 | 1016.4 |
| 20260831085656 | 78 | 300 | 0.0 | 0.0 | 0.00 | 0.00 | 0.00 | 99 | 1016.4 |
| 20260831085152 | 78 | 299 | 0.0 | 0.0 | 0.00 | 0.00 | 0.00 | 99 | 1016.5 |
| 20260831084647 | 78 | 299 | 0.0 | 0.0 | 0.00 | 0.00 | 0.00 | 99 | 1016.6 |
| 20260831084144 | 78 | 300 | 0.0 | 0.0 | 0.00 | 0.00 | 0.00 | 99 | 1016.6 |
| 20260831083639 | 78 | 301 | 0.0 | 0.0 | 0.00 | 0.00 | 0.00 | 99 | 1016.6 |
| 20260831083134 | 78 | 302 | 0.0 | 0.0 | 0.00 | 0.00 | 0.00 | 99 | 1016.8 |
| 20260831082633 | 78 | 301 | 0.0 | 0.0 | 0.00 | 0.00 | 0.00 | 99 | 1016.6 |
| 20260831082128 | 78 | 301 | 0.0 | 0.0 | 0.00 | 0.00 | 0.00 | 99 | 1016.7 |
| 20260831081624 | 78 | 337 | 0.0 | 0.0 | 0.00 | 0.00 | 0.00 | 99 | 1016.7 |
| 20260831081119 | 78 | 338 | 0.0 | 0.0 | 0.00 | 0.00 | 0.00 | 99 | 1016.5 |
| 20260831080615 | 78 | 339 | 0.0 | 0.0 | 0.00 | 0.00 | 0.00 | 99 | 1016.6 |
| 20260831080110 | 78 | 309 | 0.0 | 0.0 | 0.00 | 0.00 | 0.00 | 99 | 1016.4 |
| 20260831075605 | 78 | 318 | 0.0 | 0.0 | 0.00 | 0.00 | 0.00 | 99 | 1016.5 |
| 20260831075101 | 78 | 314 | 0.0 | 0.0 | 0.00 | 0.00 | 0.00 | 99 | 1016.5 |
| 20260831074600 | 78 | 280 | 0.0 | 0.0 | 0.00 | 0.00 | 0.00 | 99 | 1016.5 |
| 20260831074055 | 79 | 29 | 0.0 | 0.0 | 0.00 | 0.00 | 0.00 | 99 | 1016.7 |
| 20260831073549 | 78 | 327 | 0.0 | 0.0 | 0.00 | 0.00 | 0.00 | 99 | 1016.9 |
| 20260831073049 | 78 | 115 | 1.0 | 1.0 | 0.00 | 0.00 | 0.00 | 99 | 1016.7 |
| 20260831072545 | 78 | 1 | 0.0 | 0.0 | 0.00 | 0.00 | 0.00 | 99 | 1017.1 |
| 20260831072041 | 78 | 323 | 0.0 | 0.0 | 0.00 | 0.00 | 0.00 | 99 | 1016.8 |
| 20260831071539 | 78 | 323 | 0.0 | 0.0 | 0.00 | 0.00 | 0.00 | 99 | 1016.8 |
| 20260831071035 | 78 | 322 | 0.0 | 0.0 | 0.00 | 0.00 | 0.00 | 99 | 1016.9 |
| 20260831070534 | 78 | 322 | 0.0 | 0.0 | 0.00 | 0.00 | 0.00 | 99 | 1016.9 |
| 20260831070029 | 78 | 323 | 0.0 | 0.0 | 0.00 | 0.00 | 0.00 | 99 | 1017.0 |
| 20260831065527 | 79 | 324 | 0.0 | 0.0 | 0.00 | 0.00 | 0.00 | 99 | 1016.9 |
| 20260831065021 | 78 | 277 | 0.0 | 0.0 | 0.00 | 0.00 | 0.00 | 99 | 1017.0 |
| 20260831064516 | 79 | 290 | 1.0 | 1.0 | 0.00 | 0.00 | 0.00 | 99 | 1016.9 |
| 20260831064012 | 79 | 336 | 1.0 | 2.0 | 0.00 | 0.00 | 0.00 | 99 | 1016.7 |
| 20260831063508 | 79 | 309 | 0.0 | 0.0 | 0.00 | 0.00 | 0.00 | 99 | 1017.0 |
| 20260831063007 | 79 | 291 | 0.0 | 0.0 | 0.00 | 0.00 | 0.00 | 99 | 1016.7 |
| 20260831062503 | 79 | 318 | 0.0 | 0.0 | 0.00 | 0.00 | 0.00 | 99 | 1017.1 |
| 20260831062001 | 79 | 301 | 0.0 | 0.0 | 0.00 | 0.00 | 0.00 | 99 | 1016.8 |
| 20260831061459 | 79 | 293 | 0.0 | 0.0 | 0.00 | 0.00 | 0.00 | 99 | 1016.8 |
| 20260831060956 | 79 | 293 | 0.0 | 0.0 | 0.00 | 0.00 | 0.00 | 99 | 1017.0 |
| 20260831060451 | 79 | 283 | 0.0 | 0.0 | 0.00 | 0.00 | 0.00 | 99 | 1017.3 |
| 20260831055950 | 79 | 243 | 0.0 | 1.0 | 0.00 | 0.00 | 0.00 | 99 | 1017.3 |
| 20260831055446 | 79 | 250 | 0.0 | 0.0 | 0.00 | 0.00 | 0.00 | 99 | 1017.1 |
| 20260831054941 | 79 | 357 | 0.0 | 0.0 | 0.00 | 0.00 | 0.00 | 99 | 1017.5 |
| 20260831054436 | 79 | 81 | 1.0 | 2.0 | 0.00 | 0.00 | 0.00 | 99 | 1017.5 |
| 20260831053935 | 78 | 54 | 1.0 | 2.0 | 0.00 | 0.00 | 0.00 | 99 | 1017.6 |
| 20260831053433 | 78 | 325 | 0.0 | 0.0 | 0.00 | 0.00 | 0.00 | 99 | 1017.6 |
| 20260831052928 | 78 | 325 | 0.0 | 0.0 | 0.00 | 0.00 | 0.00 | 99 | 1017.5 |
| 20260831052428 | 78 | 324 | 0.0 | 0.0 | 0.00 | 0.00 | 0.00 | 99 | 1017.4 |
| 20260831051926 | 78 | 324 | 0.0 | 0.0 | 0.00 | 0.00 | 0.00 | 99 | 1017.2 |
| 20260831051425 | 78 | 325 | 0.0 | 0.0 | 0.00 | 0.00 | 0.00 | 99 | 1017.4 |
| 20260831050920 | 78 | 324 | 0.0 | 0.0 | 0.00 | 0.00 | 0.00 | 99 | 1017.3 |
| 20260831050419 | 78 | 324 | 0.0 | 0.0 | 0.00 | 0.00 | 0.00 | 99 | 1017.4 |
| 20260831045918 | 78 | 324 | 0.0 | 0.0 | 0.00 | 0.00 | 0.00 | 99 | 1017.7 |
| 20260831045418 | 78 | 324 | 0.0 | 0.0 | 0.00 | 0.00 | 0.00 | 99 | 1017.7 |
| 20260831044913 | 78 | 324 | 0.0 | 0.0 | 0.00 | 0.00 | 0.00 | 99 | 1017.9 |
| 20260831044408 | 78 | 324 | 0.0 | 0.0 | 0.00 | 0.00 | 0.00 | 99 | 1017.9 |
| 20260831043904 | 78 | 324 | 0.0 | 0.0 | 0.00 | 0.00 | 0.00 | 99 | 1018.0 |
| 20260831043403 | 78 | 324 | 0.0 | 0.0 | 0.00 | 0.00 | 0.00 | 99 | 1018.0 |
| 20260831042859 | 78 | 324 | 0.0 | 0.0 | 0.00 | 0.00 | 0.00 | 99 | 1017.9 |
| 20260831042358 | 78 | 324 | 0.0 | 0.0 | 0.00 | 0.00 | 0.00 | 99 | 1018.2 |
| 20260831041853 | 79 | 325 | 0.0 | 0.0 | 0.00 | 0.00 | 0.00 | 99 | 1018.1 |
| 20260831041352 | 78 | 315 | 0.0 | 0.0 | 0.00 | 0.00 | 0.00 | 99 | 1018.1 |
| 20260831040847 | 78 | 315 | 0.0 | 0.0 | 0.00 | 0.00 | 0.00 | 99 | 1018.1 |
| 20260831040342 | 78 | 315 | 0.0 | 0.0 | 0.00 | 0.00 | 0.00 | 99 | 1018.1 |
| 20260831035840 | 79 | 315 | 0.0 | 0.0 | 0.00 | 0.46 | 0.46 | 99 | 1018.1 |
| 20260831035339 | 79 | 315 | 0.0 | 0.0 | 0.00 | 0.46 | 0.46 | 99 | 1018.3 |
| 20260831034833 | 79 | 315 | 0.0 | 0.0 | 0.00 | 0.46 | 0.46 | 99 | 1018.3 |
| 20260831034329 | 79 | 315 | 0.0 | 0.0 | 0.00 | 0.46 | 0.46 | 99 | 1018.2 |
| 20260831033825 | 79 | 315 | 0.0 | 0.0 | 0.00 | 0.46 | 0.46 | 99 | 1018.3 |
| 20260831033324 | 79 | 314 | 0.0 | 0.0 | 0.00 | 0.46 | 0.46 | 99 | 1018.0 |
| 20260831032820 | 79 | 315 | 0.0 | 0.0 | 0.00 | 0.46 | 0.46 | 99 | 1018.3 |
| 20260831032314 | 79 | 315 | 0.0 | 0.0 | 0.00 | 0.46 | 0.46 | 99 | 1018.0 |
| 20260831031810 | 79 | 316 | 0.0 | 0.0 | 0.00 | 0.46 | 0.46 | 99 | 1018.2 |
| 20260831031309 | 79 | 317 | 0.0 | 0.0 | 0.00 | 0.46 | 0.46 | 98 | 1018.2 |
| 20260831030804 | 79 | 315 | 0.0 | 0.0 | 0.00 | 0.46 | 0.46 | 98 | 1018.3 |
| 20260831030302 | 79 | 314 | 0.0 | 0.0 | 0.00 | 0.46 | 0.46 | 98 | 1018.0 |
| 20260831025801 | 79 | 314 | 0.0 | 0.0 | 0.00 | 0.46 | 0.46 | 98 | 1018.1 |
| 20260831025256 | 80 | 315 | 0.0 | 0.0 | 0.00 | 0.46 | 0.46 | 97 | 1017.9 |
| 20260831024752 | 80 | 315 | 0.0 | 0.0 | 0.00 | 0.46 | 0.46 | 96 | 1017.9 |
| 20260831024251 | 80 | 314 | 0.0 | 0.0 | 0.00 | 0.46 | 0.46 | 96 | 1018.0 |
| 20260831023750 | 80 | 315 | 0.0 | 0.0 | 0.00 | 0.46 | 0.46 | 96 | 1017.9 |
| 20260831023249 | 80 | 315 | 0.0 | 0.0 | 0.00 | 0.46 | 0.46 | 95 | 1017.8 |
| 20260831022744 | 80 | 315 | 0.0 | 0.0 | 0.00 | 0.46 | 0.46 | 95 | 1017.8 |
| 20260831022243 | 80 | 321 | 0.0 | 0.0 | 0.00 | 0.46 | 0.46 | 95 | 1018.2 |
| 20260831021738 | 81 | 328 | 0.0 | 0.0 | 0.00 | 0.46 | 0.46 | 94 | 1018.0 |
| 20260831021238 | 81 | 324 | 0.0 | 0.0 | 0.00 | 0.46 | 0.46 | 94 | 1018.1 |
| 20260831020735 | 81 | 39 | 0.0 | 0.0 | 0.00 | 0.46 | 0.46 | 93 | 1018.0 |
| 20260831020233 | 81 | 315 | 0.0 | 0.0 | 0.00 | 0.46 | 0.46 | 93 | 1017.9 |
| 20260831015729 | 81 | 322 | 0.0 | 0.0 | 0.00 | 0.46 | 0.46 | 93 | 1018.1 |
| 20260831015225 | 81 | 318 | 0.0 | 0.0 | 0.00 | 0.46 | 0.46 | 92 | 1018.0 |
| 20260831014720 | 81 | 333 | 0.0 | 0.0 | 0.00 | 0.46 | 0.46 | 92 | 1018.2 |
| 20260831014214 | 81 | 352 | 0.0 | 0.0 | 0.00 | 0.46 | 0.46 | 92 | 1018.1 |
| 20260831013711 | 81 | 116 | 1.0 | 1.0 | 0.00 | 0.46 | 0.46 | 92 | 1018.3 |
| 20260831013210 | 81 | 269 | 0.0 | 0.0 | 0.00 | 0.46 | 0.46 | 92 | 1018.1 |
| 20260831012705 | 81 | 334 | 0.0 | 0.0 | 0.00 | 0.46 | 0.46 | 92 | 1018.2 |
| 20260831012201 | 82 | 333 | 0.0 | 0.0 | 0.00 | 0.46 | 0.46 | 91 | 1018.2 |
| 20260831011659 | 82 | 81 | 1.0 | 1.0 | 0.00 | 0.46 | 0.46 | 90 | 1018.1 |
| 20260831011155 | 82 | 320 | 0.0 | 0.0 | 0.00 | 0.46 | 0.46 | 90 | 1017.9 |
| 20260831010651 | 82 | 7 | 0.0 | 0.0 | 0.00 | 0.46 | 0.46 | 91 | 1018.2 |
| 20260831010146 | 82 | 44 | 0.0 | 1.0 | 0.00 | 0.46 | 0.46 | 90 | 1018.2 |
| 20260831005646 | 82 | 336 | 0.0 | 0.0 | 0.00 | 0.46 | 0.46 | 90 | 1018.1 |
| 20260831005141 | 82 | 333 | 0.0 | 0.0 | 0.00 | 0.46 | 0.46 | 90 | 1018.2 |
| 20260831004637 | 82 | 8 | 0.0 | 0.0 | 0.00 | 0.46 | 0.46 | 89 | 1018.1 |
| 20260831004133 | 82 | 6 | 0.0 | 0.0 | 0.00 | 0.46 | 0.46 | 90 | 1017.8 |
| 20260831003628 | 82 | 322 | 0.0 | 0.0 | 0.00 | 0.46 | 0.46 | 89 | 1017.6 |
| 20260831003124 | 82 | 331 | 0.0 | 0.0 | 0.00 | 0.46 | 0.46 | 89 | 1017.7 |
| 20260831002622 | 82 | 291 | 0.0 | 0.0 | 0.00 | 0.46 | 0.46 | 88 | 1017.9 |
| 20260831002118 | 82 | 39 | 0.0 | 0.0 | 0.00 | 0.46 | 0.46 | 88 | 1017.7 |
| 20260831001614 | 83 | 321 | 0.0 | 0.0 | 0.00 | 0.46 | 0.46 | 89 | 1017.7 |
| 20260831001109 | 83 | 321 | 0.0 | 0.0 | 0.00 | 0.46 | 0.46 | 88 | 1017.6 |
| 20260831000606 | 83 | 347 | 0.0 | 0.0 | 0.00 | 0.46 | 0.46 | 88 | 1017.6 |
| 20260831000106 | 83 | 316 | 0.0 | 0.0 | 0.00 | 0.46 | 0.46 | 88 | 1017.4 |
| 20260830235604 | 83 | 327 | 0.0 | 0.0 | 0.00 | 0.46 | 0.46 | 89 | 1017.6 |
| 20260830235059 | 84 | 327 | 0.0 | 0.0 | 0.00 | 0.46 | 0.46 | 89 | 1017.6 |
| 20260830234559 | 84 | 339 | 0.0 | 0.0 | 0.00 | 0.46 | 0.46 | 88 | 1017.5 |
| 20260830234055 | 84 | 332 | 0.0 | 0.0 | 0.00 | 0.46 | 0.46 | 86 | 1017.6 |
| 20260830233550 | 85 | 327 | 0.0 | 0.0 | 0.00 | 0.46 | 0.46 | 86 | 1017.6 |
| 20260830233046 | 85 | 330 | 0.0 | 0.0 | 0.00 | 0.46 | 0.46 | 86 | 1017.3 |
| 20260830232542 | 86 | 326 | 0.0 | 0.0 | 0.00 | 0.46 | 0.46 | 85 | 1017.3 |
| 20260830232038 | 86 | 358 | 0.0 | 0.0 | 0.00 | 0.46 | 0.46 | 83 | 1017.0 |
| 20260830231533 | 86 | 319 | 0.0 | 0.0 | 0.00 | 0.46 | 0.46 | 82 | 1017.1 |